TimeCST,TemperatureF,Dew PointF,Humidity,Sea Level PressureIn,VisibilityMPH,Wind Direction,Wind SpeedMPH,Gust SpeedMPH,PrecipitationIn,Events,Conditions,WindDirDegrees,DateUTC
12:15 AM,28.4,28.4,100,29.69,7.0,North,6.9,-,N/A,,Overcast,360,2013-12-04 06:15:00
12:35 AM,28.4,28.4,100,29.68,8.0,North,5.8,-,N/A,,Overcast,360,2013-12-04 06:35:00
12:55 AM,28.4,28.4,100,29.69,7.0,NNW,5.8,-,N/A,,Overcast,340,2013-12-04 06:55:00
1:15 AM,28.4,28.4,100,29.69,7.0,NNW,8.1,-,N/A,,Overcast,340,2013-12-04 07:15:00
1:35 AM,28.4,28.4,100,29.70,6.0,NNW,9.2,-,N/A,,Overcast,330,2013-12-04 07:35:00
1:55 AM,28.4,28.4,100,29.68,5.0,NNW,9.2,-,N/A,,Overcast,340,2013-12-04 07:55:00
2:15 AM,28.4,28.4,100,29.66,5.0,North,9.2,-,N/A,,Overcast,350,2013-12-04 08:15:00
2:35 AM,28.4,28.4,100,29.67,4.0,NNW,10.4,-,N/A,,Overcast,340,2013-12-04 08:35:00
2:55 AM,28.4,26.6,93,29.67,4.0,NNW,12.7,-,N/A,,Overcast,340,2013-12-04 08:55:00
3:15 AM,28.4,26.6,93,29.65,4.0,North,11.5,-,N/A,,Overcast,350,2013-12-04 09:15:00
3:35 AM,28.4,26.6,93,29.64,2.5,North,9.2,-,N/A,,Overcast,350,2013-12-04 09:35:00
3:55 AM,28.4,26.6,93,29.64,2.5,NNW,6.9,-,N/A,,Overcast,340,2013-12-04 09:55:00
4:15 AM,28.4,26.6,93,29.64,4.0,North,-9999.0,-,N/A,,Overcast,0,2013-12-04 10:15:00
4:35 AM,26.6,26.6,100,29.64,6.0,NNW,11.5,-,N/A,,Overcast,330,2013-12-04 10:35:00
4:55 AM,26.6,24.8,93,29.62,6.0,NNW,15.0,-,N/A,,Overcast,330,2013-12-04 10:55:00
5:15 AM,26.6,24.8,93,29.64,5.0,NNW,11.5,19.6,N/A,,Overcast,330,2013-12-04 11:15:00
5:35 AM,26.6,24.8,93,29.64,3.0,NNW,13.8,-,N/A,,Overcast,330,2013-12-04 11:35:00
5:55 AM,26.6,24.8,93,29.64,-9999.0,NNW,13.8,-,N/A,,Freezing Rain,330,2013-12-04 11:55:00
6:15 AM,26.6,24.8,93,29.63,2.0,NNW,11.5,18.4,N/A,Snow,Light Snow,330,2013-12-04 12:15:00
6:35 AM,26.6,24.8,93,29.63,2.5,NNW,10.4,-,N/A,Snow,Light Snow,330,2013-12-04 12:35:00
6:55 AM,26.6,24.8,93,29.62,3.0,NNW,8.1,-,N/A,Snow,Light Snow,330,2013-12-04 12:55:00
7:15 AM,24.8,24.8,100,29.61,2.0,NNW,9.2,-,N/A,Snow,Light Snow,330,2013-12-04 13:15:00
7:35 AM,24.8,24.8,100,29.60,1.0,NNW,8.1,-,N/A,Snow,Light Snow,330,2013-12-04 13:35:00
7:55 AM,24.8,24.8,100,29.59,0.8,NNW,8.1,-,N/A,Snow,Light Snow,330,2013-12-04 13:55:00
8:15 AM,24.8,24.8,100,29.59,0.8,NW,8.1,-,N/A,Snow,Light Snow,320,2013-12-04 14:15:00
8:35 AM,24.8,24.8,100,29.58,0.8,NW,10.4,-,N/A,Snow,Light Snow,310,2013-12-04 14:35:00
8:55 AM,24.8,24.8,100,29.60,1.0,WNW,11.5,-,N/A,Snow,Light Snow,290,2013-12-04 14:55:00
9:15 AM,24.8,21.2,86,29.61,1.8,WNW,11.5,19.6,N/A,Snow,Light Snow,290,2013-12-04 15:15:00
9:35 AM,23.0,21.2,93,29.61,3.0,WNW,12.7,-,N/A,Snow,Light Snow,290,2013-12-04 15:35:00
9:55 AM,23.0,21.2,93,29.61,5.0,WNW,12.7,19.6,N/A,,Overcast,290,2013-12-04 15:55:00
10:15 AM,21.2,19.4,93,29.62,9.0,West,15.0,-,N/A,Rain,Freezing Rain,280,2013-12-04 16:15:00
10:35 AM,21.2,19.4,93,29.62,8.0,WNW,17.3,23.0,N/A,Snow,Light Snow,290,2013-12-04 16:35:00
10:55 AM,21.2,17.6,86,29.62,8.0,WNW,15.0,23.0,N/A,,Overcast,290,2013-12-04 16:55:00
11:15 AM,21.2,17.6,86,29.59,3.0,WNW,15.0,23.0,N/A,,Freezing Rain,300,2013-12-04 17:15:00
11:35 AM,19.4,17.6,93,29.58,5.0,WNW,15.0,23.0,N/A,,Overcast,300,2013-12-04 17:35:00
11:55 AM,19.4,17.6,93,29.59,6.0,WNW,19.6,-,N/A,Rain,Freezing Rain,300,2013-12-04 17:55:00
12:15 PM,19.4,17.6,93,29.59,1.8,WNW,17.3,24.2,N/A,Snow,Light Snow,300,2013-12-04 18:15:00
12:35 PM,19.4,17.6,93,29.58,1.8,WNW,18.4,25.3,N/A,Rain,Freezing Rain,300,2013-12-04 18:35:00
12:55 PM,19.4,15.8,86,29.59,7.0,WNW,16.1,24.2,N/A,Snow,Light Snow,290,2013-12-04 18:55:00
1:15 PM,19.4,15.8,86,29.60,6.0,West,18.4,-,N/A,Rain,Freezing Rain,280,2013-12-04 19:15:00
1:35 PM,19.4,15.8,86,29.59,5.0,WNW,20.7,27.6,N/A,,Mostly Cloudy,290,2013-12-04 19:35:00
1:55 PM,17.6,14.0,86,29.59,8.0,WNW,19.6,-,N/A,,Overcast,290,2013-12-04 19:55:00
2:15 PM,17.6,14.0,86,29.58,10.0,WNW,19.6,25.3,N/A,,Overcast,300,2013-12-04 20:15:00
2:35 PM,17.6,14.0,86,29.61,10.0,WNW,20.7,27.6,N/A,,Overcast,290,2013-12-04 20:35:00
2:55 PM,17.6,14.0,86,29.60,10.0,WNW,18.4,-,N/A,,Overcast,290,2013-12-04 20:55:00
3:15 PM,17.6,14.0,86,29.62,10.0,West,17.3,25.3,N/A,,Overcast,280,2013-12-04 21:15:00
3:35 PM,15.8,12.2,86,29.65,10.0,West,23.0,-,N/A,,Overcast,270,2013-12-04 21:35:00
3:55 PM,15.8,12.2,86,29.67,10.0,West,23.0,32.2,N/A,,Overcast,280,2013-12-04 21:55:00
4:15 PM,15.8,10.4,79,29.65,9.0,WNW,21.9,32.2,N/A,Snow,Light Snow,290,2013-12-04 22:15:00
4:35 PM,15.8,10.4,79,29.66,10.0,WNW,18.4,25.3,N/A,Snow,Light Snow,290,2013-12-04 22:35:00
4:55 PM,15.8,12.2,86,29.67,10.0,WNW,15.0,24.2,N/A,,Overcast,290,2013-12-04 22:55:00
5:15 PM,15.8,10.4,79,29.68,10.0,WNW,17.3,26.5,N/A,,Overcast,290,2013-12-04 23:15:00
5:35 PM,15.8,10.4,79,29.69,10.0,WNW,24.2,31.1,N/A,,Overcast,290,2013-12-04 23:35:00
5:55 PM,15.8,10.4,79,29.71,10.0,WNW,23.0,31.1,N/A,,Overcast,290,2013-12-04 23:55:00
6:15 PM,15.8,10.4,79,29.72,10.0,WNW,20.7,32.2,N/A,Snow,Light Snow,290,2013-12-05 00:15:00
6:35 PM,15.8,10.4,79,29.74,10.0,WNW,21.9,31.1,N/A,Rain,Freezing Rain,290,2013-12-05 00:35:00
6:55 PM,15.8,8.6,73,29.73,10.0,WNW,24.2,34.5,N/A,,Overcast,300,2013-12-05 00:55:00
7:15 PM,14.0,8.6,79,29.73,9.0,NW,27.6,34.5,N/A,Rain,Freezing Rain,310,2013-12-05 01:15:00
7:35 PM,14.0,8.6,79,29.75,10.0,NW,26.5,34.5,N/A,,Overcast,310,2013-12-05 01:35:00
7:55 PM,14.0,8.6,79,29.75,8.0,NW,25.3,33.4,N/A,Snow,Light Snow,310,2013-12-05 01:55:00
8:15 PM,12.2,6.8,79,29.77,7.0,NW,29.9,35.7,N/A,Snow,Light Snow,310,2013-12-05 02:15:00
8:35 PM,12.2,6.8,79,29.77,10.0,WNW,25.3,33.4,N/A,,Overcast,300,2013-12-05 02:35:00
8:55 PM,10.4,5.0,79,29.80,10.0,WNW,21.9,33.4,N/A,Rain,Freezing Rain,300,2013-12-05 02:55:00
9:15 PM,10.4,3.2,73,29.82,10.0,NW,26.5,34.5,N/A,,Overcast,310,2013-12-05 03:15:00
9:35 PM,10.4,3.2,73,29.83,8.0,WNW,25.3,33.4,N/A,Rain,Freezing Rain,300,2013-12-05 03:35:00
9:55 PM,10.4,3.2,73,29.83,10.0,WNW,19.6,28.8,N/A,,Overcast,300,2013-12-05 03:55:00
10:15 PM,8.6,3.2,79,29.83,10.0,WNW,27.6,36.8,N/A,Snow,Light Snow,300,2013-12-05 04:15:00
10:35 PM,8.6,3.2,79,29.87,10.0,WNW,19.6,29.9,N/A,,Overcast,300,2013-12-05 04:35:00
10:55 PM,8.6,1.4,73,29.89,10.0,WNW,19.6,28.8,N/A,,Overcast,290,2013-12-05 04:55:00
11:15 PM,8.6,1.4,73,29.89,10.0,WNW,17.3,31.1,N/A,,Overcast,290,2013-12-05 05:15:00
11:35 PM,8.6,1.4,73,29.89,10.0,WNW,18.4,27.6,N/A,,Overcast,300,2013-12-05 05:35:00
11:55 PM,8.6,1.4,73,29.90,10.0,WNW,19.6,26.5,N/A,,Overcast,300,2013-12-05 05:55:00